EW5144 Weather Reports


time (UTC)temp
C
wind
direction
speed
KPH
gust
KPH
rain 1hr
cm
rain 24hr
cm
rain mn
cm
humidity
%
barometer
mb
20260505064553 10 338 0.0 3.2 0.00 0.00 0.00 82 1010.8
20260505063110 10 121 0.0 0.0 0.00 0.00 0.00 81 1010.8
20260505061615 11 117 0.0 0.0 0.00 0.00 0.00 79 1010.9
20260505060053 11 149 0.0 1.6 0.00 0.00 0.00 79 1010.9
20260505054545 11 56 0.0 1.6 0.00 0.00 0.00 78 1011.0
20260505053044 11 75 0.0 1.6 0.00 0.00 0.00 77 1010.9
20260505051605 11 110 0.0 4.8 0.00 0.00 0.00 77 1010.9
20260505041534 12 123 0.0 4.8 0.00 0.00 0.00 73 1011.0
20260505040033 12 108 0.0 4.8 0.00 0.00 0.00 72 1011.0
20260505034531 12 125 0.0 3.2 0.00 0.00 0.00 71 1010.9
20260505033031 12 23 0.0 4.8 0.00 0.00 0.00 70 1010.8
20260505031529 13 110 0.0 3.2 0.00 0.00 0.00 68 1010.9
20260505030031 13 245 0.0 4.8 0.00 0.00 0.00 67 1010.9
20260505024529 13 161 0.0 6.4 0.00 0.00 0.00 65 1010.9
20260505023028 13 65 0.0 6.4 0.00 0.00 0.00 64 1010.9
20260505021527 13 132 0.0 8.0 0.00 0.00 0.00 62 1011.0
20260505020027 13 153 0.0 4.8 0.00 0.00 0.00 61 1011.0
20260505014528 13 105 0.0 8.0 0.00 0.00 0.00 59 1010.9
20260505013025 14 139 0.0 6.4 0.00 0.00 0.00 57 1010.7
20260505011626 15 141 1.6 4.8 0.00 0.00 0.00 56 1010.5
20260505010024 15 129 0.0 4.8 0.00 0.00 0.00 54 1010.2
20260505004525 15 111 1.6 8.0 0.00 0.00 0.00 53 1009.8
20260505003024 15 118 0.0 6.4 0.00 0.00 0.00 54 1009.6
20260505001522 15 135 1.6 11.3 0.00 0.00 0.00 52 1009.2
20260505000022 16 148 1.6 9.7 0.00 0.00 0.00 50 1009.0
20260504234523 17 189 1.6 9.7 0.00 0.00 0.00 48 1008.8
20260504233020 17 122 0.0 3.2 0.00 0.00 0.00 46 1008.5
20260504231519 18 153 0.0 8.0 0.00 0.00 0.00 45 1008.2
20260504230019 18 122 1.6 9.7 0.00 0.00 0.00 44 1007.8
20260504224519 19 360 3.2 12.9 0.00 0.00 0.00 42 1007.5
20260504223018 19 200 0.0 11.3 0.00 0.00 0.00 41 1007.3
20260504221516 20 140 0.0 11.3 0.00 0.00 0.00 39 1007.3
20260504220016 20 117 3.2 12.9 0.00 0.00 0.00 37 1007.1
20260504214515 21 150 1.6 8.0 0.00 0.00 0.00 34 1007.1
20260504213017 22 108 1.6 6.4 0.00 0.00 0.00 31 1007.1
20260504211513 22 120 0.0 8.0 0.00 0.00 0.00 31 1007.1
20260504210012 22 113 0.0 4.8 0.00 0.00 0.00 29 1007.0
20260504204511 22 136 0.0 6.4 0.00 0.00 0.00 30 1007.0
20260504203017 22 179 1.6 11.3 0.00 0.00 0.00 29 1007.1
20260504201510 22 168 1.6 11.3 0.00 0.00 0.00 28 1007.1
20260504200008 22 68 1.6 9.7 0.00 0.00 0.00 28 1007.1
20260504194508 23 28 0.0 8.0 0.00 0.00 0.00 28 1007.2
20260504193014 23 141 1.6 12.9 0.00 0.00 0.00 29 1007.2
20260504191520 23 169 0.0 8.0 0.00 0.00 0.00 27 1007.1
20260504190004 23 134 3.2 11.3 0.00 0.00 0.00 27 1007.4
20260504184503 23 62 1.6 8.0 0.00 0.00 0.00 27 1007.6
20260504183101 23 328 1.6 14.5 0.00 0.00 0.00 28 1007.7
20260504181558 23 136 0.0 9.7 0.00 0.00 0.00 28 1007.8
20260504180057 23 37 1.6 9.7 0.00 0.00 0.00 27 1008.0
20260504174559 23 145 0.0 14.5 0.00 0.00 0.00 28 1008.0
20260504173057 22 41 3.2 16.1 0.00 0.00 0.00 28 1008.1
20260504171553 22 130 1.6 14.5 0.00 0.00 0.00 29 1008.0
20260504081519 7 102 0.0 1.6 0.00 0.00 0.00 57 1010.9